Regional Weather Roundup
Issued by NWS

Home | Current Version | Previous Version | Text Only | Print | Product List | Glossary On
Versions: 1 2 3 4 5 6 7 8 9 10 11 12 13 14 15 16 17 18 19 20 21 22 23 24 25 26 27 28 29 30 31 32 33 34 35 36 37 38 39 40 41 42 43 44 45 46 47 48 49 50
000
ASUS44 KLIX 310410
RWRLA
LOUISIANA WEATHER ROUNDUP
NATIONAL WEATHER SERVICE NEW ORLEANS LA
1000 PM CST FRI JAN 30 2015

NOTE: "FAIR" INDICATES FEW OR NO CLOUDS BELOW 12,000 FEET WITH NO
      SIGNIFICANT WEATHER AND/OR OBSTRUCTIONS TO VISIBILITY.
      SKY/WX - SKY CONDITION AND SIGNIFICANT WEATHER.
      TMP - AIR TEMPERATURE.    DP   - DEWPOINT TEMPERATURE.
      RH  - RELATIVE HUMIDITY.  PRES - PRESSURE.
      HX  - HEAT INDEX.         WCI  - WIND CHILL INDEX.

*  THESE STATIONS ARE NOT NWS OR FAA STATIONS AND ARE NOT UNDER
   NWS QUALITY CONTROL.

LAZ040-048-061>063-065-066-069-310500-
SOUTHEAST LOUISIANA

CITY           SKY/WX    TMP DP  RH WIND       PRES   REMARKS
N.O. AUDUBON     N/A     50  43  78 MISG        N/A
N.O. INTL ARPT MOCLDY    50  39  66 NE8       30.35S
N.O. LAKEFRONT PTCLDY    56  40  55 NE15      30.36R
N.O. DOWNTOWN* NOT AVBL
SLIDELL        PTCLDY    40  36  86 CALM      30.35S
BATON ROUGE    CLEAR     41  34  76 NE3       30.36S
BOOTHVILLE     PTCLDY    52  44  74 N6        30.34S
BELLE CHASSE   MOCLDY    41  36  82 CALM      30.35R
BOGALUSA*        N/A     39  35  85 CALM      30.39R
GALLIANO*      PTCLDY    52  42  70 MISG      30.34F
NEW ROADS*     FAIR      45  33  61 NE5       30.36F
GONZALES*      FAIR      43  36  78 CALM      30.35S
HAMMOND*       CLEAR     43  34  70 N5        30.38R
HOUMA*         PTCLDY    47  37  67 N6        30.34S
PORT FOURCHON* CLEAR     54  43  66 NE8       30.36F

$$

LAZ041-044-053-054-310500-
SOUTHWEST LOUISIANA

CITY           SKY/WX    TMP DP  RH WIND       PRES   REMARKS
LAKE CHARLES   PTCLDY    45  36  70 NE7       30.35R
LAFAYETTE      CLEAR     46  35  65 NE8       30.35S
PATTERSON      PTCLDY    48  34  57 NE3       30.35S
SALT POINT       N/A     47  39  74 CALM      30.33S
NEW IBERIA     PTCLDY    49  36  61 NE7       30.35S
CHENAULT AIRPK PTCLDY    47  35  62 NE6       30.36R

$$

LAZ027-028-310500-
CENTRAL LOUISIANA

CITY           SKY/WX    TMP DP  RH WIND       PRES   REMARKS
FORT POLK      CLEAR     46  34  65 NE6       30.35S
ALEXANDRIA INT CLEAR     44  34  67 NE6       30.37R
ALEXANDRIA     CLEAR     42  34  73 NE5       30.38S

$$

LAZ001-002-310500-
NORTHWEST LOUISIANA

CITY           SKY/WX    TMP DP  RH WIND       PRES   REMARKS
SHREVEPORT     CLOUDY    48  32  53 E8        30.36F
BARKSDALE AFB  MOCLDY    44  31  59 E5        30.37F
DTN SHREVEPORT PTCLDY    46  29  51 E5        30.38F

$$

LAZ014-016-310500-
NORTHEAST LOUISIANA

CITY           SKY/WX    TMP DP  RH WIND       PRES   REMARKS
MONROE         PTCLDY    41  32  70 NE5       30.42S
TALLULAH       PTCLDY    40  32  73 NE6       30.40F

$$



USA.gov is the U.S. government's official web portal to all federal, state and local government web resources and services.